Location: Kuppenheim
(48.8299°N, 8.2568°E)
Time: 15:17:53
(UTC+00:00)

CZ-4C R/B - Pass Details

Date: 20 June 2021
Orbit: 464 x 632 km, 98.0° (Epoch: 31 July)

Event Time Altitude Azimuth Distance (km) Brightness Sun altitude
Exits shadow 02:19:47 - 170° (S) 2,400 6.2 -8.3°
Reaches altitude 10° 02:21:36 10° 172° (S) 1,618 5.3 -8.1°
Maximum altitude 02:25:02 71° 256° (WSW) 498 2.9 -7.7°
Drops below altitude 10° 02:28:32 10° 342° (NNW) 1,638 6.2 -7.3°
Sets 02:30:37 0° 345° (NNW) 2,532 7.2 -7.1°
